CW8667 Weather Reports


Display with metric or nautical units.
time (UTC)temp
F
wind
direction
speed
MPH
gust
MPH
rain 1hr
in
rain 24hr
in
rain mn
in
humidity
%
barometer
mb
20190324191019 59 270 18.0 31.0 0.00 0.00 0.00 66 999.3
20190324190019 59 292 19.0 32.0 0.00 0.00 0.00 66 999.2
20190324185019 59 270 19.0 31.0 0.00 0.00 0.00 67 999.1
20190324184018 59 270 16.0 26.0 0.00 0.00 0.00 68 999.0
20190324183019 60 270 18.0 35.0 0.00 0.00 0.00 69 999.0
20190324182019 61 270 16.0 33.0 0.00 0.00 0.00 67 998.5
20190324181019 62 270 18.0 33.0 0.00 0.00 0.00 67 998.3
20190324180019 62 270 18.0 31.0 0.00 0.00 0.00 67 998.0
20190324175018 62 292 20.0 33.0 0.00 0.00 0.00 65 998.0
20190324174018 62 270 18.0 32.0 0.00 0.00 0.00 65 997.9
20190324173019 62 270 19.0 40.0 0.00 0.00 0.00 63 997.7
20190324172018 63 292 15.0 27.0 0.00 0.00 0.00 64 997.7
20190324171018 62 270 19.0 34.0 0.00 0.00 0.00 64 997.6
20190324170019 62 270 15.0 31.0 0.00 0.00 0.00 66 997.6
20190324165018 63 292 17.0 29.0 0.00 0.00 0.00 65 997.5
20190324164018 63 270 15.0 26.0 0.00 0.00 0.00 65 997.6
20190324163018 63 270 17.0 30.0 0.00 0.00 0.00 65 997.7
20190324162019 63 292 16.0 29.0 0.00 0.00 0.00 66 997.8
20190324161018 63 292 15.0 27.0 0.00 0.00 0.00 67 997.7
20190324160018 63 270 14.0 25.0 0.00 0.00 0.00 67 997.7
20190324155019 63 270 15.0 27.0 0.00 0.00 0.00 68 997.7
20190324154018 63 270 15.0 29.0 0.00 0.00 0.00 67 997.6
20190324153018 63 270 19.0 30.0 0.00 0.00 0.00 69 997.7
20190324152018 64 270 19.0 36.0 0.00 0.00 0.00 70 997.5
20190324151019 67 247 20.0 31.0 0.00 0.00 0.00 66 997.2
20190324150018 69 292 16.0 35.0 0.00 0.00 0.00 63 996.7
20190324145018 69 292 14.0 26.0 0.00 0.00 0.00 64 996.5
20190324144018 69 270 14.0 25.0 0.00 0.00 0.00 65 996.5
20190324143018 69 292 8.0 21.0 0.00 0.00 0.00 67 996.4
20190324142018 70 292 7.0 17.0 0.00 0.00 0.00 69 996.2
20190324141018 71 292 13.0 23.0 0.00 0.00 0.00 69 996.0
20190324140018 71 292 13.0 20.0 0.00 0.00 0.00 71 996.0
20190324135018 72 292 14.0 26.0 0.00 0.00 0.00 70 995.9
20190324134018 72 292 14.0 27.0 0.00 0.00 0.00 69 995.7
20190324133019 73 315 10.0 19.0 0.00 0.00 0.00 69 995.8
20190324132018 73 337 12.0 29.0 0.00 0.00 0.00 69 995.8
20190324131018 73 337 10.0 22.0 0.00 0.00 0.00 67 995.7
20190324130019 74 337 14.0 29.0 0.00 0.00 0.00 67 995.4
20190324125017 74 337 18.0 36.0 0.00 0.00 0.00 66 995.5
20190324124017 74 337 16.0 31.0 0.00 0.00 0.00 67 995.4
20190324123019 73 0 12.0 23.0 0.00 0.00 0.00 70 995.7
20190324122019 73 0 12.0 22.0 0.00 0.00 0.00 71 995.8
20190324121019 73 0 15.0 25.0 0.00 0.00 0.00 72 995.7
20190324120019 73 0 13.0 20.0 0.00 0.00 0.00 72 995.6
20190324115519 73 0 14.0 24.0 0.00 0.00 0.00 72 995.5
20190324114518 73 0 15.0 23.0 0.00 0.00 0.00 72 995.6
20190324113519 73 0 17.0 26.0 0.00 0.00 0.00 72 995.7
20190324112519 73 0 18.0 27.0 0.00 0.00 0.00 71 995.5
20190324111519 74 0 20.0 34.0 0.00 0.00 0.00 71 995.6
20190324110518 74 0 22.0 33.0 0.00 0.00 0.00 69 995.3
20190324105519 74 0 22.0 34.0 0.00 0.00 0.00 67 995.5
20190324104519 75 0 24.0 44.0 0.00 0.00 0.00 66 995.1
20190324103519 75 0 23.0 34.0 0.00 0.00 0.00 67 995.1
20190324102519 74 0 21.0 28.0 0.00 0.00 0.00 67 995.5
20190324101519 75 0 21.0 32.0 0.00 0.00 0.00 67 995.7
20190324100519 74 0 19.0 30.0 0.00 0.00 0.00 67 996.2
20190324095519 74 0 18.0 32.0 0.00 0.00 0.00 68 996.2
20190324094518 74 0 19.0 29.0 0.00 0.00 0.00 67 996.2
20190324093518 74 0 16.0 31.0 0.00 0.00 0.00 66 996.3
20190324092518 75 0 15.0 24.0 0.00 0.00 0.00 65 996.4
20190324091519 75 0 15.0 27.0 0.00 0.00 0.00 63 996.3
20190324090518 75 0 18.0 28.0 0.00 0.00 0.00 63 996.5
20190324085519 75 0 17.0 28.0 0.00 0.00 0.00 64 996.8
20190324084519 75 0 18.0 29.0 0.00 0.00 0.00 64 997.1
20190324083519 75 0 19.0 35.0 0.00 0.00 0.00 62 997.2
20190324082518 76 0 17.0 26.0 0.00 0.00 0.00 62 997.4
20190324081518 76 0 17.0 27.0 0.00 0.00 0.00 61 997.4
20190324080519 76 0 17.0 26.0 0.00 0.00 0.00 61 997.6
20190324075518 77 0 16.0 31.0 0.00 0.00 0.00 58 997.8
20190324074519 77 0 13.0 24.0 0.00 0.00 0.00 58 997.7
20190324073519 77 0 19.0 34.0 0.00 0.00 0.00 58 997.6
20190324072518 77 0 20.0 32.0 0.00 0.00 0.00 56 997.6
20190324071518 77 0 23.0 32.0 0.00 0.00 0.00 56 997.5
20190324070518 78 0 25.0 39.0 0.00 0.00 0.00 55 997.8
20190324065518 78 0 22.0 37.0 0.00 0.00 0.00 56 997.8
20190324064518 78 0 24.0 35.0 0.00 0.00 0.00 55 997.9
20190324063518 77 0 19.0 28.0 0.00 0.00 0.00 60 998.1
20190324062519 76 0 19.0 30.0 0.00 0.00 0.00 61 998.2
20190324061518 77 22 11.0 30.0 0.00 0.00 0.00 58 998.5
20190324060518 77 0.0 0.0 0.00 0.00 0.00 57 998.6
20190324055518 78 0.0 0.0 0.00 0.00 0.00 57 999.0
20190324054518 79 0.0 0.0 0.00 0.00 0.00 54 999.3
20190324053518 80 0.0 0.0 0.00 0.00 0.00 51 999.1
20190324052518 80 0.0 0.0 0.00 0.00 0.00 48 999.1
20190324051518 81 0.0 0.0 0.00 0.00 0.00 44 999.2
20190324050518 82 0.0 0.0 0.00 0.00 0.00 45 999.5
20190324045518 81 0.0 0.0 0.00 0.00 0.00 45 999.6
20190324044518 82 0.0 0.0 0.00 0.00 0.00 44 999.9
20190324043519 82 0.0 0.0 0.00 0.00 0.00 44 1000.1
20190324042518 81 0.0 0.0 0.00 0.00 0.00 45 1000.3
20190324041518 81 0.0 0.0 0.00 0.00 0.00 45 1000.6
20190324040518 80 0.0 0.0 0.00 0.00 0.00 47 1000.8
20190324035518 80 0.0 0.0 0.00 0.00 0.00 46 1001.1
20190324034518 80 0.0 0.0 0.00 0.00 0.00 47 1001.4
20190324033517 79 0.0 0.0 0.00 0.00 0.00 49 1001.6
20190324032518 79 0.0 0.0 0.00 0.00 0.00 48 1001.8
20190324031518 78 0.0 0.0 0.00 0.00 0.00 50 1002.3
20190324030518 78 0.0 0.0 0.00 0.00 0.00 50 1002.6
20190324025517 77 0.0 0.0 0.00 0.00 0.00 52 1002.9
20190324024518 77 0.0 0.0 0.00 0.00 0.00 53 1003.3
20190324023517 76 0.0 0.0 0.00 0.00 0.00 52 1003.6
20190324022518 75 0.0 0.0 0.00 0.00 0.00 55 1003.9
20190324021517 74 0.0 0.0 0.00 0.00 0.00 58 1004.2
20190324020517 74 0.0 0.0 0.00 0.00 0.00 59 1004.4
20190324015517 73 0.0 0.0 0.00 0.00 0.00 61 1004.7
20190324014517 73 0.0 0.0 0.00 0.00 0.00 62 1004.9
20190324013518 72 0.0 0.0 0.00 0.00 0.00 62 1005.1
20190324012517 73 0.0 0.0 0.00 0.00 0.00 63 1005.3
20190324011517 72 0.0 0.0 0.00 0.00 0.00 64 1005.5
20190324010517 72 0.0 0.0 0.00 0.00 0.00 67 1005.7
20190324005517 71 0.0 0.0 0.00 0.00 0.00 68 1005.9
20190324004518 71 0.0 0.0 0.00 0.00 0.00 70 1006.1
20190324003518 70 0.0 0.0 0.00 0.00 0.00 71 1006.4
20190324002518 70 0.0 0.0 0.00 0.00 0.00 71 1006.7
20190324001517 69 0.0 0.0 0.00 0.00 0.00 75 1006.9
20190324000519 69 0.0 0.0 0.00 0.00 0.00 75 1007.0
20190323235519 69 0.0 0.0 0.00 0.00 0.00 75 1007.3
20190323234518 69 0.0 0.0 0.00 0.00 0.00 76 1007.3
20190323233517 68 0.0 0.0 0.00 0.00 0.00 76 1007.5
20190323232517 68 0.0 0.0 0.00 0.01 0.00 75 1007.7
20190323231519 68 0.0 0.0 0.00 0.01 0.00 75 1007.9
20190323230519 67 0.0 0.0 0.00 0.02 0.00 74 1007.9
20190323225517 67 0.0 0.0 0.00 0.02 0.00 75 1008.1
20190323224519 67 0.0 0.0 0.00 0.02 0.00 74 1008.2
20190323223519 67 0.0 0.0 0.00 0.02 0.00 74 1008.2
20190323222517 66 0.0 0.0 0.00 0.02 0.00 75 1008.3
20190323221517 66 0.0 0.0 0.00 0.02 0.00 76 1008.3
20190323220519 65 0.0 1.0 0.00 0.02 0.00 79 1008.3
20190323215519 64 0.0 0.0 0.00 0.02 0.00 81 1008.4
20190323214519 63 0.0 0.0 0.00 0.02 0.00 82 1008.5
20190323213518 63 0.0 0.0 0.00 0.02 0.00 82 1008.5
20190323213017 63 0.0 0.0 0.00 0.02 0.00 82 1008.4
20190323212019 62 0.0 0.0 0.00 0.02 0.00 83 1008.3
20190323211019 62 0.0 0.0 0.00 0.02 0.00 84 1008.2
20190323210018 61 0.0 0.0 0.00 0.03 0.00 84 1008.2
20190323205019 60 0.0 0.0 0.00 0.03 0.00 83 1008.2
20190323204019 60 0.0 0.0 0.00 0.03 0.00 83 1008.1
20190323203018 60 0.0 0.0 0.00 0.03 0.00 83 1008.1
20190323202019 60 0.0 0.0 0.00 0.03 0.00 83 1008.0
20190323201018 60 0.0 0.0 0.00 0.03 0.00 83 1008.0
20190323200019 61 0.0 0.0 0.00 0.03 0.00 83 1007.9
20190323195019 61 0.0 0.0 0.00 0.03 0.00 83 1007.9
20190323194018 61 0.0 0.0 0.00 0.03 0.00 83 1007.8
20190323193018 61 0.0 0.0 0.00 0.03 0.00 83 1007.7
20190323192019 61 0.0 0.0 0.00 0.03 0.00 82 1007.7